Regional Weather Roundup
Issued by NWS

Home | Current Version | Previous Version | Graphics & Text | Print | Product List | Glossary On
Versions: 1 2 3 4 5 6 7 8 9 10 11 12 13 14 15 16 17 18 19 20 21 22 23 24 25 26 27
000
ASUS45 KBOI 251610
RWRID

IDAHO REGIONAL WEATHER ROUNDUP
NATIONAL WEATHER SERVICE BOISE ID
1000 AM MDT SUN SEP 25 2016

NOTE: "FAIR" INDICATES FEW OR NO CLOUDS BELOW 12000 FEET
WITH NO SIGNIFICANT WEATHER AND/OR OBSTRUCTIONS TO VISIBILITY

IDZ012-014-251700-
SOUTHWEST IDAHO


CITY           SKY/WX    TMP DP  RH WIND       PRES   REMARKS
BOISE          SUNNY     57  36  45 SE5       30.47R
CALDWELL       SUNNY     54  39  57 N5        30.48R
MOUNTAIN HOME  SUNNY     51  39  63 E6        30.48R
$$

IDZ016-017-251700-
SOUTHCENTRAL IDAHO


CITY           SKY/WX    TMP DP  RH WIND       PRES   REMARKS
BURLEY         SUNNY     53  38  56 NW3       30.49R
JEROME         SUNNY     51  35  54 CALM      30.50R
TWIN FALLS     SUNNY     58  35  42 W12       30.49R
$$

IDZ019>023-251700-
SOUTHEAST IDAHO


CITY           SKY/WX    TMP DP  RH WIND       PRES   REMARKS
IDAHO FALLS    SUNNY     50  35  56 CALM      30.51S
POCATELLO      SUNNY     48  39  71 CALM      30.51S
REXBURG        SUNNY     45  39  79 CALM      30.51S
$$

IDZ006-010-011-018-031-032-251700-
CENTRAL IDAHO MOUNTAINS


CITY           SKY/WX    TMP DP  RH WIND       PRES   REMARKS
MCCALL         SUNNY     45  35  68 CALM      30.50R
HAILEY         SUNNY     48  30  49 NW7       30.53R
STANLEY          N/A     39  31  72 CALM      30.57F
SALMON         SUNNY     43  36  75 W5        30.53S
CHALLIS        SUNNY     46  34  62 CALM      30.53S
$$

IDZ002-004-006-007-026-251700-
NORTHERN IDAHO


CITY           SKY/WX    TMP DP  RH WIND       PRES   REMARKS
LEWISTON       SUNNY     57  41  55 E7        30.44R
LOWELL           N/A     49  43  80 N3        30.52S
COEUR D`ALENE  NOT AVBL
MULLAN PASS    CLOUDY    42  33  70 SW5       30.47R
$$




USA.gov is the U.S. government's official web portal to all federal, state and local government web resources and services.